Location: Beachview Mobile Home Park
(33.7117°N, 118.0015°W)
Time: 19:32:16
(UTC+00:00)

Daily predictions for brighter satellites

Satellite Brightness Start Highest point End
(mag) Time Altitude Azimuth Time Altitude Azimuth Time Altitude Azimuth
Tianhe-1 2.8 12:03:23 10° WNW 12:06:08 27° NNW 12:08:54 10° NE
MOS 1 Rocket 4.3 12:02:20 10° SSE 12:06:25 47° ENE 12:10:33 10° N
BREEZE-M DEB (TANK) 4.2 12:08:19 10° NNW 12:10:52 38° NE 12:16:46 10° ESE
CENTAUR R/B 3.5 12:02:39 10° NNW 12:11:11 83° ENE 12:20:09 10° SSE
USA 238 DEB 4.1 12:04:11 10° NNW 12:11:38 86° ENE 12:19:18 10° SSE
USA 238 4.1 12:04:18 10° NNW 12:11:45 85° ENE 12:19:25 10° SSE
DELTA 2 R/B (1) 3.8 12:07:46 10° WNW 12:13:19 75° NNE 12:18:53 10° ESE
CZ-2C R/B 3.0 12:09:18 10° N 12:13:48 38° WNW 12:18:09 10° SW
